TimeEDT,TemperatureF,Dew PointF,Humidity,Sea Level PressureIn,VisibilityMPH,Wind Direction,Wind SpeedMPH,Gust SpeedMPH,PrecipitationIn,Events,Conditions,WindDirDegrees,DateUTC
12:53 AM,68.0,64.0,87,30.18,10.0,ENE,6.9,-,N/A,,Clear,60,2012-03-16 04:53:00
1:53 AM,66.9,64.0,90,30.17,10.0,ENE,6.9,-,N/A,,Clear,70,2012-03-16 05:53:00
2:53 AM,66.0,63.0,90,30.15,10.0,ENE,5.8,-,N/A,,Clear,60,2012-03-16 06:53:00
3:53 AM,64.9,63.0,93,30.13,10.0,ENE,9.2,-,N/A,,Clear,60,2012-03-16 07:53:00
4:53 AM,64.9,63.0,93,30.13,10.0,NE,5.8,-,N/A,,Clear,50,2012-03-16 08:53:00
5:53 AM,64.9,63.0,93,30.14,10.0,NE,5.8,-,N/A,,Clear,40,2012-03-16 09:53:00
6:53 AM,64.9,63.0,93,30.17,10.0,ENE,4.6,-,N/A,,Partly Cloudy,60,2012-03-16 10:53:00
7:53 AM,64.9,63.0,93,30.19,10.0,NE,6.9,-,N/A,,Partly Cloudy,50,2012-03-16 11:53:00
8:53 AM,70.0,64.9,84,30.19,10.0,ENE,8.1,-,N/A,,Clear,70,2012-03-16 12:53:00
9:53 AM,75.0,66.0,73,30.20,10.0,East,12.7,-,N/A,,Clear,90,2012-03-16 13:53:00
10:53 AM,77.0,64.9,66,30.20,10.0,ENE,12.7,-,N/A,,Scattered Clouds,70,2012-03-16 14:53:00
11:53 AM,80.6,64.4,58,30.21,10.0,East,10.4,-,N/A,,Mostly Cloudy,80,2012-03-16 15:53:00
12:53 PM,81.0,64.0,56,30.19,10.0,ESE,11.5,-,N/A,,Scattered Clouds,110,2012-03-16 16:53:00
1:53 PM,82.9,63.0,51,30.16,10.0,East,10.4,-,N/A,,Scattered Clouds,100,2012-03-16 17:53:00
2:53 PM,80.1,64.0,58,30.14,10.0,SW,8.1,-,N/A,,Mostly Cloudy,220,2012-03-16 18:53:00
3:53 PM,77.0,66.0,69,30.12,9.0,WSW,11.5,-,N/A,,Mostly Cloudy,240,2012-03-16 19:53:00
4:27 PM,75.2,68.0,78,30.12,2.5,SW,10.4,-,0.03,Rain,Light Rain,230,2012-03-16 20:27:00
4:34 PM,75.2,69.8,83,30.12,7.0,WSW,6.9,-,0.03,Rain,Light Rain,240,2012-03-16 20:34:00
4:53 PM,73.9,69.1,85,30.12,7.0,SW,5.8,-,0.03,,Overcast,220,2012-03-16 20:53:00
5:53 PM,73.0,64.9,76,30.12,4.0,Variable,6.9,16.1,0.06,Rain,Heavy Rain,0,2012-03-16 21:53:00
6:28 PM,71.6,64.4,78,30.14,10.0,SE,8.1,-,N/A,Rain-Thunderstorm,Light Thunderstorms and Rain,130,2012-03-16 22:28:00
6:53 PM,68.0,64.9,90,30.16,2.5,SSE,11.5,-,0.06,Rain-Thunderstorm,Rain,150,2012-03-16 22:53:00
6:58 PM,68.0,64.4,88,30.17,0.8,SSE,9.2,-,0.20,Rain-Thunderstorm,Heavy Rain,160,2012-03-16 22:58:00
7:00 PM,68.0,64.4,88,30.16,0.5,South,6.9,-,0.34,Fog-Rain,Heavy Rain,180,2012-03-16 23:00:00
7:02 PM,68.0,64.4,88,30.16,0.2,South,9.2,-,0.45,Fog-Rain,Heavy Rain,190,2012-03-16 23:02:00
7:09 PM,66.2,64.4,94,30.15,0.2,SW,13.8,-,0.66,Fog-Rain,Heavy Rain,220,2012-03-16 23:09:00
7:11 PM,66.2,64.4,94,30.15,0.5,SW,11.5,-,0.66,Fog-Rain,Heavy Rain,220,2012-03-16 23:11:00
7:14 PM,68.0,64.4,88,30.16,0.8,SSW,10.4,-,0.68,Rain,Rain,210,2012-03-16 23:14:00
7:18 PM,68.0,66.2,94,30.16,2.0,SSW,9.2,-,0.69,Rain,Rain,210,2012-03-16 23:18:00
7:53 PM,68.0,66.0,93,30.16,10.0,West,3.5,-,0.70,,Overcast,270,2012-03-16 23:53:00
8:53 PM,68.0,66.0,93,30.17,10.0,Calm,Calm,-,N/A,,Partly Cloudy,0,2012-03-17 00:53:00
9:53 PM,68.0,66.9,96,30.18,9.0,Calm,Calm,-,N/A,,Clear,0,2012-03-17 01:53:00
10:53 PM,66.0,64.9,96,30.19,9.0,NE,3.5,-,N/A,,Clear,50,2012-03-17 02:53:00
11:53 PM,66.0,64.9,96,30.20,10.0,NNE,3.5,-,N/A,,Clear,30,2012-03-17 03:53:00